Miscellaneous Local Product
Issued by NWS North Platte, NE

Home | Current Version | Previous Version | Text Only | Print | Product List | Glossary On
Versions: 1 2 3 4 5 6 7 8 9 10 11 12 13 14 15 16 17 18 19 20 21 22 23 24 25 26 27 28 29 30 31 32 33 34 35 36 37 38 39 40 41 42 43 44 45 46 47 48 49 50
268
AXUS43 KLBF 132310
MISLBF


WESTERN AND NORTH CENTRAL NEBRASKA HOURLY WEATHER ROUNDUP
NATIONAL WEATHER SERVICE NORTH PLATTE NE
500 PM CST SAT FEB 13 2016

NOTE: "FAIR" INDICATES FEW OR NO CLOUDS BELOW 12,000 FEET WITH NO
SIGNIFICANT WEATHER AND/OR OBSTRUCTIONS TO VISIBILITY.

NOTE: STATIONS NOT REPORTING VARIABLES SUCH AS SKY/WEATHER OR
PRESSURE ARE PROVIDED BY THE NEBRASKA DEPARTMENT OF
ROADS...RAWS...AND APRS NETWORKS...AND ARE NOT UNDER
NATIONAL WEATHER SERVICE QUALITY CONTROL.

...OBSERVATIONS IN AND NEAR THE EASTERN PANHANDLE OF NEBRASKA...

CITY           SKY/WX    TMP DP  RH WIND       PRES   REMARKS
PINE RIDGE     SUNNY     48  34  58 S14       29.74F
CHADRON        SUNNY     61  30  31 SW20G25   29.72F
ALLIANCE       CLOUDY    43  33  68 S15       29.80F
SIDNEY         CLOUDY    44  37  76 S13       29.87F
CRESCENT LAKE    N/A     36  30  79 S9          N/A  WCI  29
$$

...OBSERVATIONS IN NORTH CENTRAL NEBRASKA...

CITY           SKY/WX    TMP DP  RH WIND       PRES   REMARKS
VALENTINE      CLOUDY    28  23  81 S22G29    29.91F WCI  14
THEDFORD       CLOUDY    26  24  94 S15G23    29.95F FOG     WCI  14
AINSWORTH      CLOUDY    26  21  82 S22       29.96F WCI  11
O`NEILL        CLOUDY    22  12  66 S17G28    30.08F WCI   7
ORD            CLOUDY    22   9  57 S16G25    30.07F WCI   8
BROKEN BOW     CLOUDY    22  14  71 S20       30.05F WCI   7
VALENTINE NWR    N/A     24  21  89 S18G28      N/A  WCI  10
BUTTE            N/A     22  15  74 S21G31      N/A  WCI   7
HALSEY           N/A     23  20  89 S13G23      N/A  WCI  11
CHAMBERS         N/A     22   8  55 S13         N/A  WCI  10
EWING            N/A     19  12  74 S10         N/A  WCI   7
$$

...OBSERVATIONS IN SOUTHWEST NEBRASKA AND FAR NORTHEAST COLORADO...

CITY           SKY/WX    TMP DP  RH WIND       PRES   REMARKS
WRAY           FAIR      39  32  74 SE8       29.95F WCI  34
HOLYOKE        FAIR      37  34  87 S13       29.92F WCI  29
IMPERIAL       CLOUDY    30  27  88 S13       29.96F WCI  20
OGALLALA       CLOUDY    32  29  88 S12       29.94F WCI  23
NORTH PLATTE   CLOUDY    26  21  81 S13       30.00F WCI  15
MCCOOK         CLOUDY    28  23  81 S13       30.04F HAZE    WCI  17
LEXINGTON      CLOUDY    25  17  73 SE15      30.05F WCI  12
STAPLETON        N/A     23  21  91 CALM        N/A
$$

...OBSERVATIONS IN CENTRAL LINCOLN COUNTY AREA...

CITY           SKY/WX    TMP DP  RH WIND       PRES   REMARKS
N.P. AIRPORT   CLOUDY    26  21  81 S13       30.00F WCI  15
N.P. DOWNTOWN    N/A     25  23  91 S7          N/A  WCI  17
N.P. SOUTHEAST   N/A     25  22  89 S12G20      N/A  WCI  14
N.P. HILLCREST   N/A     25  24  93 S13G20      N/A  WCI  14
$$

...SOME OBSERVATIONS FROM AROUND THE REGION...

CITY           SKY/WX    TMP DP  RH WIND       PRES   REMARKS
DENVER         PTSUNNY   61  25  25 NW12      29.96R
LARAMIE        CLOUDY    45  14  28 W35G48    29.93F
CHEYENNE       CLOUDY    52  20  28 W41G52    29.92S
SCOTTSBLUFF    CLOUDY    57  23  26 W13       29.82F
RAPID CITY     SUNNY     50  33  52 S13       29.70F
BISMARCK       LGT SNOW  18  11  74 SE18      29.96F WCI   2
PIERRE         FRZ RAIN  28  25  88 SE24G31   29.88R WCI  14
WINNER         CLOUDY    30  19  63 S16G26    29.95F WCI  19
SIOUX FALLS    CLOUDY    11   1  64 SE15      30.24F WCI  -5
OMAHA          CLOUDY    19   3  49 SE14      30.34F WCI   6
GRAND ISLAND   CLOUDY    20   8  60 SE16      30.18S WCI   6
KANSAS CITY    CLOUDY    20   4  50 E16       30.35F WCI   6
WICHITA        CLOUDY    43  11  27 SE13      30.15F
OKLAHOMA CITY  MOSUNNY   58  33  39 SE21      30.10F
LIBERAL        SUNNY     64  36  34 SE16G23   29.91F
HAYS           CLOUDY    37  14  38 SE15      30.10F WCI  28
GOODLAND       CLOUDY    32  30  92 S8        29.97F FOG     WCI  25
$$




USA.gov is the U.S. government's official web portal to all federal, state and local government web resources and services.